Theta_e
340 340 340 339 339 341 342 343 341 343 345 346 346 346 345 343 343 345 346 345 345 345 344 345 344 343 343 342 342 342 341 340 340 340 337 331 327 336 345 344 345 345 344 344 344 344 344 344 344 344 344 344 344 344 344 343 344 344 344 343 343 344 344 344 344 344 344 345 344 344 344 343 343 343 342 342 342 342 342 341 341 342 342 342 342
340 338 338 337 336 337 340 343 342 342 343 344 345 345 344 343 344 346 346 345 345 345 344 344 343 342 342 342 342 342 342 340 335 330 330 331 331 338 343 343 345 345 345 344 344 343 343 344 344 344 344 344 345 344 343 343 344 344 344 343 343 344 344 345 345 344 345 344 344 344 343 343 342 342 342 342 342 341 340 340 339 340 342 342 342
340 339 336 335 333 335 338 341 343 343 343 343 343 344 344 345 346 345 345 345 345 346 344 344 343 342 342 342 342 343 342 339 333 329 334 338 336 339 342 344 345 345 344 344 343 343 343 344 344 344 344 344 344 344 343 344 344 344 343 343 344 344 344 345 345 345 345 344 344 344 343 342 341 339 339 340 340 340 340 339 339 339 340 341 340
341 340 337 336 334 334 337 341 343 344 344 345 345 345 346 345 344 343 343 342 342 344 344 344 344 344 344 343 342 343 343 339 335 335 339 341 340 342 344 345 345 344 343 343 343 343 344 344 344 344 343 343 343 344 344 344 344 344 343 344 344 344 344 344 344 345 345 344 344 343 342 340 338 336 336 336 336 337 338 338 339 340 341 341 341
342 341 340 338 335 335 337 340 342 343 344 345 345 344 345 344 343 343 343 342 341 342 343 344 344 344 344 344 343 344 343 339 337 336 340 342 343 344 344 345 344 344 343 343 342 342 343 343 343 344 343 344 344 344 344 344 345 344 344 343 343 343 343 343 343 343 343 343 341 339 338 337 336 337 337 337 337 336 337 337 338 338 338 339 339
341 341 342 339 336 337 338 340 341 344 344 344 344 343 343 344 344 343 343 343 342 341 343 344 344 344 345 344 343 344 343 339 338 336 339 342 343 344 344 344 344 343 343 342 343 343 343 343 343 344 344 344 343 343 343 343 344 344 344 343 341 341 341 341 341 341 340 339 338 335 335 336 336 338 338 338 338 338 338 338 337 337 336 336 336
340 340 342 340 340 339 339 341 342 343 344 343 343 342 343 343 344 343 343 344 343 343 343 343 343 344 345 345 343 344 342 340 339 337 338 340 342 343 344 343 344 344 343 343 343 343 343 344 344 344 343 342 342 342 343 343 344 344 344 343 341 340 339 339 339 339 338 337 334 333 335 337 339 340 340 339 339 339 339 339 339 338 337 338 338
341 341 342 342 342 340 340 342 343 343 343 343 343 343 343 343 343 344 344 343 343 343 343 343 343 343 344 345 344 344 343 341 341 340 339 339 341 342 343 343 344 344 344 344 344 343 343 345 344 343 343 342 342 342 342 342 343 344 343 342 339 338 338 338 338 338 338 337 335 336 339 341 342 343 342 341 341 340 339 339 339 339 339 339 339
341 342 342 343 343 340 340 343 343 343 343 344 344 343 343 343 343 344 344 343 343 342 342 343 343 344 344 344 344 344 344 343 342 341 340 340 340 341 343 343 343 344 345 344 344 343 343 345 344 343 342 342 342 342 342 341 342 343 343 342 337 333 334 335 336 337 337 337 337 338 340 341 342 342 342 340 339 338 338 338 338 338 338 339 340
340 341 342 342 342 341 340 341 342 341 341 342 342 343 342 342 343 344 344 344 344 342 343 344 344 344 344 344 343 344 344 344 343 342 341 341 340 341 342 343 343 344 345 344 343 344 344 345 343 343 343 342 343 342 342 341 342 343 343 341 336 331 331 331 333 335 337 338 339 340 340 340 340 340 339 339 338 338 338 337 337 338 339 339 340
338 339 340 341 341 340 339 339 339 339 340 341 341 341 342 343 343 344 344 344 345 344 344 344 344 343 344 345 344 344 344 344 343 342 342 341 341 342 342 343 344 344 344 344 343 344 345 345 343 343 343 343 343 342 342 342 343 343 342 340 334 331 330 328 329 331 335 338 340 340 339 338 338 338 338 339 339 339 338 337 337 338 338 338 339
338 337 337 340 341 339 339 340 342 341 341 343 342 341 342 344 343 343 344 344 344 344 343 342 343 342 343 345 344 344 344 343 343 343 342 341 341 342 342 342 343 344 344 343 343 344 345 344 343 343 343 343 343 342 343 343 344 343 341 340 336 331 328 327 326 327 330 333 336 337 337 336 337 339 339 339 338 337 336 335 336 336 336 337 338
337 337 337 340 342 340 341 343 345 344 343 344 343 342 343 344 342 343 345 343 342 343 341 341 343 342 343 344 344 343 343 343 343 343 343 342 342 342 342 342 342 343 343 342 344 344 344 344 342 343 343 343 342 343 343 343 343 343 342 340 335 329 326 325 325 326 327 329 331 333 334 334 337 339 339 339 338 337 334 334 335 334 333 333 335
336 337 337 340 342 342 343 343 343 342 342 343 342 342 344 343 341 342 344 341 341 342 341 342 342 341 342 343 344 343 343 344 343 343 343 342 341 343 343 342 343 343 343 343 343 344 344 342 342 342 343 343 343 343 342 343 343 342 342 339 333 327 325 324 324 325 326 328 329 331 333 334 336 336 336 335 334 333 332 333 333 330 328 327 326
336 336 337 340 343 343 342 341 339 340 341 342 342 344 344 341 339 342 342 340 341 343 342 343 343 342 341 342 344 343 343 343 344 343 343 342 340 342 343 343 343 343 343 343 343 343 342 341 341 342 342 343 343 342 342 342 343 343 341 338 332 326 325 325 325 326 327 329 329 331 332 332 332 333 330 327 328 328 330 333 332 329 325 321 320
337 337 336 338 341 341 339 339 339 340 342 342 342 344 344 339 339 342 342 341 342 343 342 343 343 342 342 342 343 344 343 343 344 343 343 342 339 341 343 343 343 343 342 342 343 342 341 338 339 340 341 342 342 342 342 342 342 341 338 335 330 326 326 325 326 326 327 328 328 329 329 327 326 327 325 324 325 326 328 331 332 332 329 325 322
336 336 334 335 337 339 339 340 342 342 343 343 344 345 344 341 340 342 342 341 342 343 342 342 342 342 342 342 343 343 343 343 342 342 343 341 339 341 344 343 343 343 343 342 342 340 337 335 335 336 339 341 341 342 342 341 339 337 336 334 330 327 326 325 326 326 327 327 327 327 326 325 324 324 324 324 325 326 327 328 330 331 331 331 327
333 334 334 336 339 341 340 341 344 345 344 345 345 345 344 342 340 342 342 341 341 341 342 341 342 342 343 343 343 343 343 342 341 340 341 340 340 342 344 343 343 343 342 341 339 335 333 332 331 332 335 338 340 340 340 340 339 338 338 336 333 330 328 327 326 326 327 327 326 326 325 325 325 324 324 323 323 324 325 325 325 324 325 327 326
334 336 337 339 340 341 340 340 343 344 343 344 345 345 344 342 340 343 342 341 341 342 342 341 342 343 343 343 343 343 342 342 340 338 339 341 342 343 343 343 342 342 341 337 333 329 328 328 328 330 332 336 338 338 339 341 340 339 338 337 336 335 334 330 327 326 326 326 326 326 326 326 325 324 324 323 323 322 322 322 322 322 322 323 324
337 339 339 340 340 340 340 340 341 342 342 343 344 345 345 342 342 343 342 341 343 343 342 341 343 344 344 343 343 342 342 342 340 338 340 342 343 343 342 342 342 341 337 331 327 326 326 326 327 329 332 335 337 339 340 341 340 339 339 338 337 338 338 334 329 327 326 326 326 326 326 326 325 324 324 323 322 321 321 321 322 322 322 323 324
339 340 339 340 339 340 341 341 341 342 342 342 344 344 343 342 344 344 343 342 343 344 343 343 343 344 344 343 343 342 342 342 341 341 342 342 342 343 343 343 340 335 330 327 328 328 327 327 328 332 335 337 339 340 341 341 340 340 339 339 339 340 340 337 331 327 326 325 325 325 325 325 324 324 323 322 322 322 322 322 323 323 324 325 326
340 339 339 339 339 340 341 342 341 342 342 342 344 344 343 343 344 344 344 343 342 343 343 344 343 344 343 342 343 342 342 342 341 342 342 342 342 342 342 340 334 329 328 330 332 331 329 329 332 335 337 339 340 340 341 341 341 341 341 341 341 341 340 338 332 327 326 325 325 325 324 324 323 322 322 322 322 322 322 323 324 325 325 326 327
339 339 339 339 339 339 341 342 341 340 341 342 343 344 343 343 344 344 344 343 343 343 343 343 343 343 342 342 342 341 341 340 340 341 341 342 342 342 339 334 329 329 332 333 333 332 331 332 335 337 338 339 340 340 341 340 341 341 341 342 342 342 341 339 333 327 325 324 323 324 323 323 323 322 322 322 322 323 324 325 326 326 327 329 330
339 339 339 339 339 340 341 340 340 340 341 341 343 344 344 343 343 343 343 343 342 343 343 343 343 342 341 342 342 341 341 339 339 340 341 342 342 340 336 331 330 333 333 333 332 333 334 335 337 339 340 341 341 341 341 341 341 341 341 342 342 342 341 340 334 326 323 323 322 322 322 322 322 322 322 323 324 324 325 326 327 328 330 332 333
339 339 339 340 341 341 340 339 339 340 342 343 344 345 344 343 342 342 343 343 343 343 343 343 343 342 341 341 341 341 340 339 339 339 340 341 341 339 335 332 333 334 333 333 334 336 337 338 339 340 341 341 342 342 342 341 341 341 342 342 341 341 340 338 333 325 322 321 322 322 322 322 323 323 324 325 325 326 327 328 329 331 333 333 334
340 340 340 340 341 341 339 339 339 340 342 343 343 344 344 343 342 341 342 343 342 342 342 342 342 342 341 340 340 340 340 339 339 339 339 341 340 337 335 334 334 334 333 335 338 339 339 339 340 341 341 342 342 342 342 342 342 342 342 342 341 340 338 336 331 324 321 321 322 322 323 324 324 325 325 326 327 327 329 330 332 332 332 333 333
340 340 340 341 341 339 339 339 340 340 340 341 342 343 343 343 342 341 341 342 342 341 342 341 341 341 340 340 340 340 339 339 338 339 339 340 339 337 336 335 334 333 335 339 341 341 341 342 342 342 342 342 342 342 342 342 342 342 341 341 340 338 337 334 330 325 322 322 323 324 325 325 326 326 327 327 328 329 331 332 332 332 332 333 334
341 341 340 341 340 339 339 339 340 340 340 341 342 342 342 343 343 341 341 341 341 341 341 341 340 340 340 339 339 338 338 338 338 339 339 339 337 336 335 334 334 334 337 341 342 342 342 343 343 343 342 342 342 342 341 341 341 341 341 340 338 337 335 332 329 325 324 324 325 325 326 326 327 327 328 329 330 331 331 331 331 333 333 333 332
340 340 341 341 339 339 339 339 340 341 341 342 342 342 341 342 342 342 341 340 340 340 341 341 341 340 340 339 338 338 338 338 339 338 338 337 336 336 335 335 337 337 339 342 342 343 342 342 342 342 342 342 342 342 341 341 341 341 341 340 338 336 333 331 329 326 325 326 326 326 327 327 328 328 329 330 330 330 330 331 332 332 332 330 330
341 340 341 341 339 339 338 339 340 341 342 342 341 341 340 340 341 341 342 340 339 339 339 340 340 340 340 339 338 339 338 338 338 337 337 336 335 335 334 336 340 342 342 342 342 342 342 342 341 341 342 342 342 342 341 341 341 341 341 341 339 335 331 330 328 326 326 327 327 327 328 328 328 329 330 330 329 329 331 331 331 330 329 330 331
343 341 340 340 340 339 338 338 340 341 342 342 341 341 340 340 339 341 341 340 339 338 337 338 338 339 338 338 338 338 338 338 337 336 336 336 335 335 336 339 342 344 343 342 342 341 341 341 341 341 342 342 342 342 342 341 341 341 341 342 340 336 333 332 328 326 327 327 327 328 328 329 329 329 329 328 328 329 330 330 329 330 330 331 332
344 342 341 340 339 338 339 339 339 340 341 341 341 340 340 339 339 339 340 339 339 338 337 337 337 337 337 337 337 337 337 336 336 336 335 336 337 339 340 343 344 344 342 342 342 341 341 341 341 342 342 343 343 343 342 342 342 341 341 341 341 339 338 338 334 328 327 328 328 328 328 329 328 328 327 327 328 328 329 329 329 330 331 332 333
344 343 342 340 339 339 340 340 339 338 338 338 340 340 339 339 339 338 339 339 339 339 339 339 338 337 336 336 336 336 335 335 335 335 335 337 341 343 344 344 344 344 343 343 342 342 341 341 342 342 343 343 344 344 343 342 341 341 341 341 341 341 341 341 339 333 329 329 329 328 328 328 327 325 326 327 328 329 330 330 330 331 331 333 334
344 344 342 340 339 340 341 341 339 337 336 337 339 340 339 339 338 338 338 338 339 339 339 338 337 335 335 336 335 335 335 335 335 335 335 339 342 343 344 344 345 345 345 344 344 343 342 342 342 343 344 344 344 344 343 342 341 341 341 341 341 341 341 341 340 337 334 331 329 329 328 327 326 325 326 328 329 330 330 330 330 331 333 335 337
345 343 342 341 340 340 341 342 340 337 337 337 338 340 339 339 338 337 338 338 339 339 337 336 335 335 335 335 335 334 334 334 335 336 339 341 343 343 344 345 345 345 346 346 345 345 343 343 342 343 344 344 344 344 343 342 342 342 342 341 340 339 340 341 340 340 338 333 331 332 330 327 326 326 327 329 330 330 330 330 331 333 336 338 339
344 344 343 343 341 341 341 342 341 339 338 337 338 340 339 339 339 338 338 339 339 339 338 337 337 337 336 335 335 334 334 333 334 337 341 342 343 344 345 345 346 346 347 347 346 344 344 343 343 344 344 344 344 343 342 342 342 343 342 340 339 339 339 341 341 341 341 338 337 336 334 331 328 327 329 329 329 329 329 331 333 335 337 339 340
344 344 343 342 342 341 342 342 341 340 340 338 337 340 340 339 339 338 338 339 340 340 340 340 340 341 339 335 333 334 334 334 336 339 341 342 343 344 345 345 346 346 347 346 345 344 344 344 343 344 344 344 344 343 341 342 343 343 342 341 340 339 339 340 341 341 341 341 341 340 338 336 331 328 329 329 329 330 332 334 336 336 337 338 340
345 345 343 341 341 342 342 342 341 341 340 338 336 338 339 339 339 338 339 339 340 341 340 341 341 341 338 335 336 338 338 339 340 342 343 344 344 344 344 344 345 345 345 345 344 344 344 343 344 344 344 344 344 343 342 342 342 342 342 341 340 339 339 340 340 341 341 341 342 342 341 341 337 331 329 329 329 331 334 337 338 338 339 339 340
345 345 344 341 341 342 343 342 341 341 340 338 336 336 337 338 338 339 339 340 340 341 341 341 342 340 335 334 339 342 343 343 343 344 344 344 343 343 342 342 343 344 344 344 344 343 343 343 343 344 343 344 344 343 342 341 342 342 342 341 339 339 339 339 340 340 341 341 341 341 341 342 341 337 333 330 331 332 334 336 337 338 340 341 341
346 345 344 342 341 343 343 341 340 341 340 338 336 336 336 336 337 337 338 339 339 339 340 341 343 341 335 334 340 343 343 344 344 344 343 343 343 342 341 341 342 343 344 344 344 343 343 343 343 343 343 344 344 343 342 342 341 342 342 341 340 339 339 339 340 340 341 341 341 341 341 341 341 341 338 335 334 333 333 334 335 337 341 342 341
346 346 345 343 342 343 342 341 341 340 339 338 336 335 335 334 334 335 336 337 337 338 339 341 342 342 338 334 338 342 343 344 344 344 343 343 342 341 341 342 342 344 344 343 344 343 343 343 342 343 343 344 344 343 342 341 341 341 340 340 340 339 339 339 339 340 340 340 341 341 341 341 341 340 340 338 337 337 338 338 338 339 342 343 343
346 346 346 343 342 343 342 341 341 340 340 338 336 336 335 334 333 333 335 335 335 337 339 340 341 341 341 337 337 340 342 343 343 343 343 343 342 341 341 342 342 344 344 343 343 343 343 342 342 343 344 344 343 342 341 341 341 341 340 339 339 338 338 338 339 339 339 340 340 340 341 341 341 341 340 338 337 339 340 340 341 341 342 343 343
345 345 346 344 342 343 343 341 341 340 340 339 338 338 338 338 336 336 336 336 336 337 338 340 339 339 340 339 338 338 340 341 341 342 344 343 343 342 341 342 342 342 344 344 343 343 343 342 343 343 344 344 342 342 342 341 341 341 340 340 340 339 338 340 340 340 340 340 340 339 340 340 341 341 340 339 339 340 340 340 341 341 341 342 342
346 346 346 346 342 342 342 341 341 341 341 340 339 340 340 341 341 340 339 338 338 338 337 339 338 336 338 337 336 337 339 339 340 341 343 344 343 343 344 343 341 342 344 344 343 344 343 342 343 343 344 343 342 342 343 343 342 341 340 341 341 339 340 341 340 341 340 340 340 339 339 340 341 341 341 340 341 341 342 342 341 341 341 341 341
346 345 346 347 343 341 342 341 340 341 341 341 339 341 342 341 340 341 340 339 338 337 335 335 335 334 334 334 334 336 338 339 339 341 343 345 345 345 345 343 342 344 345 343 343 343 343 343 343 343 344 344 343 343 343 344 344 342 341 342 343 341 342 343 341 340 340 339 339 338 338 339 339 340 340 340 341 341 341 341 341 341 341 341 341
345 345 345 347 345 342 342 342 341 341 341 342 340 341 341 339 339 340 340 340 339 337 334 333 333 332 332 333 333 335 338 339 341 342 344 345 345 345 344 342 343 345 345 343 343 343 344 345 344 344 344 344 344 344 344 345 345 343 343 344 345 344 345 344 342 341 340 339 339 337 338 337 338 339 339 339 339 339 340 340 340 341 341 341 341
344 344 345 347 346 345 344 343 343 342 342 342 342 342 340 338 339 339 340 341 341 339 336 334 334 334 333 333 334 335 337 338 341 343 344 345 345 345 344 343 343 344 344 344 344 344 345 346 345 344 344 344 344 345 344 345 346 345 345 346 346 346 345 344 343 342 341 341 340 337 337 336 337 337 338 338 339 339 339 339 340 340 340 341 342
343 344 345 346 347 346 346 345 344 343 344 343 343 343 340 338 339 339 340 341 341 340 339 339 338 337 335 334 334 335 337 338 340 342 343 344 345 344 344 343 343 342 343 343 344 345 346 346 346 345 345 345 345 344 344 344 346 346 346 347 346 346 346 345 343 344 343 342 340 338 338 337 336 337 337 338 338 339 339 340 340 340 340 341 342
343 343 344 345 347 347 347 346 343 342 344 344 343 342 341 340 340 340 340 341 341 342 341 342 341 339 337 335 335 335 336 337 338 341 342 343 344 344 343 343 342 342 343 343 344 345 346 346 346 346 345 345 345 345 344 344 345 346 347 347 347 346 346 345 345 344 344 343 342 340 340 339 339 339 339 339 339 340 341 341 342 342 341 341 342
343 343 344 345 346 347 347 347 344 341 343 344 344 343 342 342 342 342 342 342 342 342 342 343 343 341 339 337 336 335 336 336 337 338 339 340 342 343 343 343 342 342 342 342 344 345 346 346 346 346 345 345 345 344 344 345 345 345 347 347 347 346 345 345 345 345 344 344 344 343 342 342 342 341 341 342 342 342 342 343 343 343 342 342 343
342 343 343 344 346 346 347 347 346 344 344 343 344 344 343 343 344 344 344 344 343 342 343 343 344 344 342 342 340 338 337 336 336 337 337 339 340 342 343 343 342 342 341 342 343 345 346 346 346 346 345 344 344 344 344 345 345 345 346 347 347 346 345 345 344 344 345 344 344 344 344 344 343 344 344 343 343 343 344 344 345 344 343 343 343
Wind_Speed
15 14 13 13 13 14 14 14 13 14 14 15 15 14 14 13 13 13 14 17 18 17 17 16 15 14 13 12 12 12 11 11 12 11 11 12 14 17 15 14 14 14 15 15 15 15 16 15 15 15 15 16 16 16 16 16 16 16 16 16 15 15 15 15 15 15 15 15 16 16 15 15 16 16 15 15 15 15 15 15 15 15 15 15 14
16 15 13 13 14 14 14 14 14 15 15 15 14 14 13 13 14 14 14 16 17 16 15 15 14 13 12 11 11 12 12 11 12 13 14 16 17 17 15 14 14 15 16 15 14 14 15 15 15 15 15 15 15 16 16 16 16 15 15 15 15 15 15 15 14 14 14 15 15 15 15 15 15 14 14 14 14 14 14 14 14 14 15 14 14
16 16 14 13 14 14 13 14 14 14 15 15 14 14 13 14 14 14 14 16 16 15 14 13 13 12 12 11 11 12 12 13 14 15 17 18 18 18 16 14 14 15 16 15 14 13 13 14 15 15 15 14 14 15 16 15 15 15 15 15 15 14 14 14 14 14 14 14 15 15 15 15 14 13 13 13 13 13 13 14 14 14 14 14 14
16 16 15 13 13 13 13 13 14 14 13 14 14 13 12 12 12 12 14 15 15 15 14 13 12 12 12 11 12 12 13 14 15 17 18 18 18 17 15 15 15 15 15 15 14 14 13 13 14 14 15 14 14 14 15 15 15 15 15 14 14 14 13 13 13 14 14 14 14 14 14 14 14 13 13 13 12 12 12 13 13 13 13 13 13
16 16 15 14 13 12 12 12 12 13 12 12 12 12 11 11 11 11 13 13 13 14 13 13 12 11 11 12 12 13 14 15 16 17 18 18 17 15 15 15 15 15 15 15 15 14 13 13 14 14 14 14 14 14 14 14 14 14 14 14 13 13 13 14 13 13 13 13 13 12 13 13 14 13 13 13 13 13 12 12 12 12 11 12 12
16 16 15 14 13 12 12 12 12 12 11 10 10 11 10 11 10 11 12 12 12 12 13 13 12 12 11 12 12 12 14 15 16 17 16 16 15 14 14 14 14 14 14 15 14 13 14 14 13 14 14 13 13 13 13 13 12 13 13 13 13 13 13 13 13 12 12 11 11 11 13 13 13 13 12 12 12 12 12 12 12 11 11 11 11
17 16 15 14 14 13 12 12 12 11 10 10 10 10 10 11 10 11 11 11 12 12 12 12 12 12 12 11 12 12 13 14 15 16 16 15 14 13 13 14 13 13 13 14 14 13 13 13 13 13 13 12 12 12 12 12 11 12 12 12 12 12 12 12 12 11 10 10 10 11 12 13 13 12 12 12 12 12 12 11 11 11 11 11 11
17 16 14 14 13 12 13 12 11 11 10 10 10 10 10 10 10 10 11 11 11 11 11 12 12 12 11 11 11 12 12 14 14 15 15 14 14 13 13 13 13 13 13 12 13 13 12 12 13 11 11 11 11 11 11 11 10 11 11 11 11 10 10 11 10 10 9 9 10 11 11 12 12 12 12 12 11 11 11 10 10 10 10 10 10
17 15 14 14 12 12 12 12 11 10 10 9 9 9 9 9 9 9 10 10 10 10 10 11 11 11 11 11 11 12 12 13 13 14 15 14 13 13 12 13 13 13 13 12 12 13 12 11 12 11 11 11 11 11 10 10 9 10 11 11 10 10 10 9 9 9 8 9 10 10 10 11 11 11 11 10 10 9 9 9 9 9 9 9 9
17 16 14 13 12 12 12 11 10 10 9 9 8 8 8 8 8 8 9 10 10 10 10 10 11 11 11 11 11 11 11 12 13 14 14 14 14 13 12 11 11 12 12 12 11 11 11 11 12 11 11 11 10 10 10 10 9 9 11 11 11 11 10 9 8 7 7 8 8 9 9 9 9 10 10 9 9 9 9 8 8 8 7 7 8
17 15 14 13 12 12 12 11 9 9 8 8 7 7 7 8 8 8 8 9 10 9 9 9 10 10 11 11 11 11 11 11 12 13 13 14 14 12 12 11 10 11 11 11 11 10 10 10 11 10 10 10 10 10 9 10 9 9 11 11 11 11 9 9 8 7 7 6 7 8 8 7 9 10 9 8 9 9 8 7 7 7 6 6 6
16 15 14 12 11 11 11 9 9 8 7 7 7 7 7 8 8 8 8 8 9 8 8 9 9 9 10 11 11 11 11 11 12 12 12 13 13 12 11 11 10 11 11 10 10 10 10 10 10 9 10 10 9 9 9 9 9 10 11 10 10 10 9 8 8 7 7 6 5 6 6 6 9 10 9 8 7 7 6 5 5 5 5 5 5
15 14 14 12 11 10 9 9 9 8 8 7 7 7 7 8 8 8 7 7 8 8 9 9 10 9 9 10 10 11 11 12 11 12 12 11 12 11 11 11 10 10 10 10 10 10 10 9 9 9 9 9 9 9 9 9 10 10 11 10 10 10 9 9 8 8 7 6 6 6 5 6 9 9 8 7 5 5 4 3 3 3 4 4 4
14 13 12 11 10 9 9 8 8 8 8 7 7 7 7 7 6 8 8 8 8 9 9 9 10 10 9 10 10 11 11 12 12 12 11 10 11 11 11 11 10 10 10 10 9 9 9 9 8 8 9 9 8 8 9 10 10 10 10 10 10 11 10 10 9 8 8 7 7 6 5 5 7 7 5 5 4 4 4 3 4 4 3 4 3
12 11 11 11 10 9 8 7 7 7 7 7 7 7 6 5 6 7 8 8 9 10 10 10 11 10 10 10 10 11 11 11 12 12 11 10 10 11 11 11 10 10 9 9 9 9 8 8 7 7 8 9 9 9 10 10 9 9 9 9 10 11 10 10 9 8 8 8 7 6 5 5 6 6 5 5 5 5 5 5 5 5 5 5 5
11 10 10 10 9 8 8 7 6 6 6 6 6 7 7 5 6 6 7 7 8 9 9 10 11 11 10 10 10 10 11 12 11 11 11 10 10 11 11 11 10 10 9 9 8 8 7 7 7 7 8 9 9 9 10 10 9 9 10 10 10 11 10 9 9 8 8 8 7 7 6 6 7 7 8 8 8 7 6 6 6 6 6 6 7
11 9 9 9 8 8 8 7 6 5 5 5 4 6 7 6 7 7 7 8 9 10 9 10 11 11 11 10 10 10 12 12 11 10 11 11 11 12 11 10 10 10 9 9 8 7 7 6 6 7 8 8 8 9 9 10 10 11 11 11 11 11 10 9 9 8 8 8 8 8 8 8 8 9 9 9 9 8 7 7 7 7 7 8 8
10 9 8 8 8 7 7 7 7 6 5 5 5 7 7 5 6 8 9 9 9 10 10 11 11 11 11 11 11 11 12 11 11 10 10 12 12 12 11 10 10 10 9 9 8 7 7 6 6 6 7 7 7 8 8 9 11 11 11 11 11 11 11 10 9 10 9 9 9 9 9 9 9 9 9 10 10 9 8 8 8 8 9 9 9
9 9 8 8 7 7 6 6 6 6 5 4 5 8 7 6 6 7 8 9 9 10 11 11 11 11 11 10 11 12 13 12 11 11 12 13 13 12 10 10 10 10 9 8 8 8 7 7 7 7 7 7 7 7 7 9 10 10 11 11 11 11 11 11 11 11 10 10 9 9 9 9 8 9 10 10 10 9 8 8 8 9 9 9 9
9 9 8 7 6 6 5 5 5 4 4 4 4 7 7 6 7 7 8 9 9 10 11 11 10 10 10 10 11 13 14 13 12 13 14 13 12 11 10 10 9 9 9 9 10 9 9 9 8 8 8 7 7 7 8 9 10 10 10 11 11 10 10 11 12 12 11 10 9 8 8 8 8 9 10 10 9 9 9 8 8 8 9 9 8
10 10 8 7 6 5 5 4 4 4 4 3 3 6 6 5 7 9 9 9 10 11 12 11 11 11 10 11 13 14 15 14 14 14 14 12 11 11 10 9 9 10 11 11 11 10 10 10 10 10 9 9 8 7 8 8 8 9 9 9 9 8 10 11 12 11 10 9 8 8 8 8 8 9 10 10 10 9 9 8 8 8 8 8 8
10 10 8 7 6 6 5 5 4 4 3 2 2 5 5 5 7 9 9 10 10 11 12 12 12 12 12 12 14 15 15 15 15 15 13 12 11 10 9 8 10 12 12 11 11 10 10 11 11 10 10 9 8 8 9 8 7 8 8 8 7 8 9 11 12 11 10 9 8 8 8 8 9 10 10 10 10 9 9 9 8 8 8 8 8
9 8 8 8 7 6 5 5 4 3 3 3 3 5 6 6 7 8 9 10 10 10 11 12 12 11 12 13 14 15 15 16 15 14 14 13 11 10 9 10 12 13 12 12 11 11 11 11 10 10 9 8 8 9 9 9 8 7 7 7 7 8 9 10 11 11 10 9 8 8 9 9 9 10 10 10 10 9 9 9 9 8 8 8 8
8 8 8 8 8 7 6 5 4 3 4 4 4 5 7 7 7 9 10 9 10 11 11 12 12 12 13 14 15 16 16 16 15 14 14 13 12 11 11 12 13 13 12 12 12 12 12 11 10 10 9 8 7 7 7 7 6 6 6 6 7 8 9 10 11 11 10 9 9 9 9 10 10 10 10 10 9 9 9 9 9 9 8 7 8
9 9 10 9 8 7 6 5 4 4 5 5 5 6 7 8 7 8 10 10 10 11 12 13 13 13 14 15 16 17 17 16 15 15 14 13 12 12 12 13 13 12 13 13 13 13 12 11 11 10 8 7 6 6 5 4 4 4 5 6 7 8 9 9 10 11 10 9 9 10 10 10 11 10 9 9 9 9 9 9 9 8 7 7 8
10 10 10 10 9 8 6 5 4 5 6 6 6 6 7 8 8 8 9 10 11 12 12 13 14 15 15 16 17 17 17 16 15 15 14 12 12 12 13 13 13 13 14 15 14 13 12 11 10 8 7 5 4 4 3 3 4 5 5 6 7 7 7 8 9 10 11 10 10 10 10 11 10 10 9 9 9 9 8 8 8 7 7 8 9
10 10 11 10 10 8 7 5 5 6 6 6 7 7 8 8 9 9 10 11 13 13 13 14 14 15 16 17 17 17 17 16 14 14 13 12 12 13 13 13 13 14 15 15 14 12 11 9 8 6 5 4 3 2 1 3 4 5 5 5 5 5 6 7 8 10 11 11 11 10 10 10 10 9 8 8 8 8 8 7 7 7 8 9 10
9 10 11 10 10 9 7 6 6 7 6 7 8 9 10 11 10 10 11 12 14 14 14 15 16 16 16 16 17 17 16 14 13 13 13 12 13 13 13 14 14 15 15 14 12 11 9 7 5 4 3 2 2 1 2 3 3 3 3 3 4 5 6 7 8 10 12 12 11 10 10 10 9 8 7 7 7 7 7 7 7 8 10 11 11
9 10 10 10 9 8 7 6 6 6 6 6 8 10 11 13 12 12 12 12 13 14 14 16 16 17 16 16 17 15 14 13 13 13 13 13 13 14 14 14 14 14 13 11 10 8 6 4 3 3 2 1 1 2 2 2 1 2 3 4 5 6 6 7 9 11 12 12 11 10 9 9 8 7 6 6 6 7 8 8 9 11 11 12 12
9 10 10 10 9 8 7 6 6 6 6 6 8 11 12 13 14 14 13 12 13 13 14 15 15 16 16 16 16 14 14 13 13 13 14 14 14 14 14 14 13 12 11 10 8 6 5 4 2 2 1 0 2 2 2 2 1 2 3 5 6 7 7 8 10 11 12 12 11 10 8 8 8 7 6 6 7 8 9 10 11 12 12 12 11
10 10 10 9 9 9 8 7 7 6 7 8 9 11 12 14 14 15 15 14 15 14 14 14 15 15 15 15 15 14 14 14 14 14 14 14 14 14 14 13 11 10 10 9 8 6 5 4 3 1 0 1 3 3 3 2 1 1 3 5 7 8 9 9 10 11 11 11 10 9 8 7 7 6 6 7 8 9 10 12 12 12 12 11 11
10 10 10 10 10 9 9 8 7 7 8 9 10 11 12 14 14 15 15 16 16 16 15 14 14 14 14 14 14 15 15 15 15 14 14 14 14 14 13 12 11 9 9 8 8 7 6 5 3 2 1 2 3 4 3 3 2 2 4 6 7 9 9 10 10 10 10 11 10 9 8 7 7 7 7 8 10 10 11 12 12 11 11 10 10
9 10 11 11 10 10 10 9 8 9 9 10 11 11 12 14 14 15 15 16 16 16 16 15 14 14 14 14 14 15 14 14 14 14 14 15 15 14 13 11 9 8 8 7 7 7 6 5 3 2 2 3 4 4 3 3 2 3 5 6 7 8 8 9 10 10 10 10 9 9 8 8 8 8 8 9 10 11 11 11 11 10 10 10 10
10 11 11 12 11 10 10 9 10 10 10 11 11 12 12 13 14 15 16 16 16 16 16 16 15 15 15 15 15 15 15 14 14 15 15 15 14 13 11 10 8 7 6 6 6 6 5 4 4 3 2 3 4 4 3 2 2 4 6 6 6 7 7 8 9 10 10 9 9 9 9 9 8 8 9 10 10 10 10 10 10 9 9 9 10
11 11 11 12 12 11 10 10 11 10 10 11 12 12 12 13 14 15 16 16 16 16 16 17 16 16 16 16 16 15 15 15 16 16 16 15 13 11 10 9 8 7 6 6 6 5 5 5 4 3 3 3 4 4 4 2 2 4 5 6 6 6 7 7 8 8 9 9 8 8 9 9 9 9 9 9 9 9 9 9 9 8 8 8 9
11 11 11 12 12 11 11 11 11 11 11 11 13 13 12 13 14 14 15 16 16 16 16 17 16 16 16 16 16 16 16 16 17 17 16 14 12 10 8 7 7 7 6 6 6 6 6 5 4 3 3 2 4 4 3 1 2 3 5 6 6 6 6 7 7 7 7 8 8 8 8 8 8 8 8 8 8 8 8 8 7 7 7 7 8
11 11 11 12 12 12 11 11 12 11 11 11 13 14 13 14 14 15 15 15 15 15 15 15 15 15 15 16 17 17 17 17 17 16 14 12 10 9 7 7 7 6 6 6 6 6 6 5 5 4 2 3 4 3 2 0 2 3 4 5 5 6 5 5 5 5 5 6 7 7 7 7 7 8 7 7 7 7 7 7 7 6 6 6 6
12 12 11 11 12 12 12 12 12 12 12 12 13 14 14 15 15 15 15 15 15 15 14 14 13 14 15 18 18 18 18 17 15 14 12 11 10 8 7 8 7 6 5 6 6 7 6 6 6 4 2 3 4 3 3 1 2 2 3 3 4 4 4 3 3 3 4 4 4 4 5 6 6 6 6 6 6 5 5 6 6 6 5 5 5
12 13 12 12 13 12 12 13 13 13 13 13 14 15 16 16 17 17 16 16 15 15 14 13 13 14 16 18 18 17 16 15 14 13 11 10 9 8 7 8 7 5 6 7 7 7 8 7 6 4 2 4 4 3 2 2 2 2 1 2 2 2 2 1 1 1 2 3 3 3 3 3 4 3 3 4 4 3 3 3 3 5 5 4 3
13 13 14 14 14 14 13 14 14 14 15 15 16 16 17 17 18 18 18 17 16 15 14 12 12 13 16 18 17 16 15 14 13 12 10 9 8 7 7 7 6 5 6 7 8 8 9 8 7 4 3 4 4 4 3 3 4 3 2 2 3 2 1 1 1 0 2 3 3 3 2 2 2 2 2 2 2 3 2 2 2 3 5 5 5
14 14 16 15 15 15 15 16 15 15 16 17 17 17 18 18 19 19 18 17 16 15 14 13 11 12 15 17 16 15 14 13 12 11 10 8 7 6 6 6 6 5 6 7 8 8 9 9 8 5 3 3 4 4 3 3 4 3 2 3 4 2 1 2 1 1 2 4 4 4 4 3 2 1 1 1 1 3 3 3 3 3 5 6 6
15 16 17 16 16 16 16 17 16 16 17 17 18 17 17 18 18 18 17 17 15 14 13 12 11 11 13 15 15 14 13 13 12 11 9 7 6 5 5 5 5 5 5 6 7 7 9 10 8 5 4 4 5 4 2 1 3 3 2 3 4 2 0 1 0 2 3 4 5 4 4 3 2 2 2 2 1 2 2 3 3 3 4 5 7
17 17 18 16 16 17 18 19 18 17 17 18 18 17 16 16 15 16 16 15 14 13 12 11 11 11 12 14 15 14 13 12 12 10 8 7 6 5 4 3 3 5 5 5 6 6 8 9 7 5 4 4 4 3 2 1 1 2 3 4 5 3 2 2 3 4 5 5 5 4 4 3 2 2 4 3 2 1 1 1 2 4 5 6 7
19 19 19 17 17 18 19 20 20 18 18 18 17 17 16 14 14 14 14 13 12 12 12 12 12 12 13 14 14 14 12 11 10 9 7 6 6 5 4 3 4 5 5 5 6 6 7 8 7 6 4 4 4 3 2 3 2 2 2 4 5 4 4 4 5 6 6 6 6 5 4 3 2 3 4 3 3 4 3 4 4 5 7 7 8
22 21 20 18 17 19 20 21 21 19 19 18 17 17 16 15 16 15 14 14 13 13 14 14 14 13 14 14 14 14 12 10 9 8 7 6 5 5 4 5 6 6 5 6 6 6 7 7 7 6 5 4 3 2 2 3 3 2 2 4 4 3 4 5 5 4 4 6 7 6 4 4 4 4 4 3 4 5 5 6 6 7 7 8 9
23 22 20 19 17 18 19 20 21 20 20 19 18 18 18 18 19 18 18 17 16 16 15 15 15 14 13 14 14 14 13 11 9 8 7 6 5 5 5 6 7 6 6 7 7 7 7 7 7 7 6 4 3 2 1 2 2 1 1 3 3 3 4 5 5 3 2 4 6 6 4 3 4 5 5 5 5 5 7 7 7 7 7 8 9
24 22 21 20 18 18 18 19 20 20 20 20 20 19 19 20 20 19 18 17 17 16 14 14 13 12 12 13 13 13 13 12 10 9 8 7 6 6 6 7 8 8 7 7 8 7 7 7 7 7 6 5 4 1 1 1 1 1 1 1 2 3 4 5 4 3 3 4 5 4 3 2 4 5 6 7 7 8 8 7 7 7 7 8 9
26 23 22 21 20 19 17 17 18 20 20 20 21 21 21 21 20 19 18 17 15 13 13 13 12 11 12 13 13 12 12 12 11 10 9 8 7 7 7 7 8 8 8 8 8 8 7 6 7 7 7 7 5 3 1 2 2 2 2 1 1 2 3 4 4 3 3 4 4 4 2 1 2 3 5 6 8 8 7 6 6 6 7 8 9
27 25 23 21 21 20 18 17 17 18 20 21 22 22 22 21 20 19 18 16 14 12 11 11 11 11 12 12 13 13 13 13 12 12 11 9 8 7 8 8 9 8 8 8 8 7 7 7 7 8 8 8 7 5 3 3 4 4 3 3 2 2 2 2 3 3 3 3 4 4 4 3 2 2 3 4 5 5 5 4 5 6 7 8 9
28 26 23 22 22 21 20 18 16 17 19 21 23 23 23 22 21 19 18 16 14 13 13 12 12 12 12 12 12 13 13 13 13 13 12 11 10 9 9 9 9 8 8 9 9 8 7 7 8 8 9 9 8 6 5 4 5 5 5 5 4 3 3 3 2 2 1 2 3 3 3 3 3 3 3 3 4 4 5 5 6 7 7 8 9
28 27 25 23 22 22 21 19 18 17 18 19 22 24 24 23 22 20 18 17 15 15 15 14 14 14 13 12 11 12 13 14 14 14 13 12 12 11 11 11 10 9 9 9 9 8 8 8 8 9 9 9 9 8 7 6 6 6 5 5 5 5 5 5 5 4 3 2 2 3 3 3 3 4 4 4 4 5 5 6 7 8 8 9 9
Wind_Direction
152 148 146 136 130 127 131 137 140 140 139 138 134 132 130 133 138 140 132 118 113 113 115 116 117 117 117 116 114 113 113 116 119 120 116 114 115 122 122 113 109 107 106 104 103 104 104 106 107 107 106 107 106 103 101 101 102 102 103 102 99 96 95 94 94 94 94 96 97 95 93 93 93 94 95 95 95 94 95 96 94 93 91 91 92
147 146 144 139 134 130 132 138 142 142 140 139 136 137 140 143 141 138 128 116 113 112 113 114 115 114 113 111 106 105 104 107 112 114 111 108 113 120 121 115 112 109 107 105 104 105 107 109 108 106 105 104 103 102 103 104 104 103 103 102 101 101 101 100 100 99 97 98 99 99 97 95 94 96 96 96 95 94 95 95 94 93 91 91 92
149 146 143 142 138 133 134 138 141 143 142 141 139 144 146 141 134 131 125 118 116 114 114 114 113 112 110 109 106 103 100 100 104 110 111 111 115 121 122 121 118 113 110 107 105 106 110 110 109 109 107 104 102 104 104 104 103 103 102 102 101 102 102 102 103 102 102 102 102 101 98 95 92 93 93 93 94 96 96 96 95 95 95 96 94
153 148 145 143 140 138 136 136 138 140 141 142 141 144 140 130 126 126 122 119 118 116 116 114 113 111 109 109 109 107 103 100 103 110 114 116 118 121 122 120 117 115 113 109 108 110 112 110 109 109 107 103 102 102 101 102 101 100 100 99 99 98 98 99 100 100 102 102 100 100 96 93 90 90 91 92 94 96 97 98 98 97 98 98 97
157 150 147 144 143 141 138 137 135 136 137 140 139 137 133 125 123 123 120 118 119 118 117 116 116 114 113 111 111 110 106 104 107 115 119 120 120 118 116 115 116 116 115 113 113 115 115 112 111 109 105 102 102 99 99 100 98 99 97 97 96 96 95 95 95 95 97 97 96 96 94 92 92 91 91 92 91 92 95 96 96 96 97 97 99
159 152 149 147 146 142 141 141 136 136 136 136 135 133 131 123 122 124 123 119 120 121 119 120 121 122 119 115 116 113 109 110 113 119 123 122 120 116 113 115 118 118 118 117 116 117 116 114 113 109 105 104 104 101 100 100 99 99 96 96 96 95 95 94 94 93 92 91 91 92 94 94 93 91 89 88 88 88 89 90 92 93 96 97 98
157 154 152 149 148 146 144 142 139 138 136 135 132 134 132 126 126 127 126 123 123 121 121 124 125 126 124 121 122 118 114 115 118 121 124 124 122 118 113 114 118 119 119 118 119 119 116 115 113 108 107 105 103 100 98 99 100 99 96 95 96 96 96 95 94 92 89 88 88 89 92 93 93 93 88 84 83 83 84 86 88 88 90 93 95
156 156 153 150 149 147 145 142 143 141 138 135 133 134 132 129 127 127 128 128 127 125 124 124 124 127 129 128 126 124 120 120 122 122 123 125 125 121 115 115 119 120 118 117 119 118 119 118 112 108 106 103 101 98 95 94 96 97 93 91 94 96 96 97 96 94 92 91 89 89 92 93 92 91 86 79 77 76 78 79 81 83 85 89 91
158 158 153 152 151 150 149 147 146 145 142 138 136 134 130 129 130 132 132 132 131 129 128 126 126 130 132 133 133 131 127 127 128 125 124 126 127 125 119 119 120 119 118 119 118 116 119 116 108 108 104 102 99 95 92 90 92 93 87 82 84 87 88 92 94 94 93 91 91 91 91 92 90 87 81 74 71 70 72 76 76 79 83 85 85
160 160 155 154 155 156 154 154 155 150 147 144 142 137 135 135 138 142 140 139 136 136 136 133 131 132 135 139 141 140 138 135 132 131 128 128 129 128 125 123 121 118 116 118 117 116 116 110 107 108 102 99 93 90 90 86 86 86 82 77 78 78 78 81 86 91 90 88 91 91 90 90 89 82 76 71 70 69 71 76 79 82 85 87 86
160 162 158 155 158 158 156 158 157 152 150 148 149 148 149 149 152 154 155 151 141 140 142 137 137 139 142 146 147 147 147 141 135 135 133 132 132 131 130 127 124 119 115 116 117 118 114 108 108 107 102 97 91 89 87 84 86 82 80 77 73 73 74 77 81 85 85 86 88 88 87 88 86 78 72 69 70 71 71 75 82 87 90 92 92
161 163 158 155 157 157 157 158 155 156 157 157 158 156 160 165 166 161 161 156 142 144 149 144 146 148 150 151 150 152 152 146 141 137 135 137 136 135 135 133 128 121 118 120 121 121 115 109 109 108 104 98 93 91 86 85 87 83 81 75 66 65 68 72 74 76 77 79 80 81 83 86 86 80 73 68 66 68 68 74 88 94 97 103 107
162 163 160 157 154 158 165 164 165 168 168 171 167 164 173 177 171 162 162 160 151 156 161 156 151 154 157 155 155 156 155 151 148 140 134 137 140 140 140 137 132 127 125 124 123 121 116 111 109 108 103 98 92 88 89 87 86 83 80 71 63 62 62 64 66 67 68 70 71 73 79 87 88 84 79 72 62 54 55 73 98 102 105 114 123
165 164 161 158 155 166 176 175 180 179 179 183 174 173 175 172 173 166 167 174 168 167 167 161 157 161 165 161 159 159 156 153 149 142 135 136 142 143 142 140 134 133 129 124 123 120 117 112 108 106 101 98 93 89 92 91 87 82 77 69 64 63 61 59 60 61 62 63 64 68 76 84 86 84 80 71 54 40 49 79 98 96 106 125 127
172 169 166 165 165 177 185 188 193 187 186 187 182 175 156 157 181 172 173 184 178 174 171 166 164 167 168 165 163 159 154 152 147 144 142 141 144 146 143 140 137 135 130 126 125 122 120 118 113 110 105 103 100 95 92 91 88 81 76 70 65 64 61 57 55 56 57 58 57 60 64 66 72 72 64 54 51 48 55 79 90 85 94 113 111
176 177 177 176 178 186 187 189 195 193 191 194 190 161 138 160 182 170 174 184 181 181 178 172 168 169 170 167 166 158 150 150 149 149 151 147 146 148 143 139 137 133 133 130 127 126 124 123 122 117 111 107 103 98 89 85 85 81 77 71 66 63 58 53 51 51 53 54 52 53 49 47 54 58 55 52 55 54 57 74 82 79 84 93 93
178 182 184 182 185 189 186 185 188 194 194 190 175 129 130 162 175 168 175 181 183 184 179 179 175 172 173 167 165 156 149 150 149 153 154 148 147 149 143 139 137 133 133 132 130 129 125 125 124 121 116 109 103 98 88 83 86 84 77 68 63 61 55 51 50 50 50 50 47 49 48 45 49 54 58 60 63 61 59 64 66 70 75 79 79
178 181 183 183 187 190 191 189 183 190 195 177 148 127 133 157 168 169 177 185 185 180 177 184 180 173 174 167 162 155 150 147 149 157 153 148 148 147 143 138 136 133 134 133 130 125 122 123 120 119 117 110 105 100 92 89 90 84 75 67 62 57 53 50 50 50 48 47 46 48 50 49 52 56 62 65 65 64 60 57 57 60 64 68 69
177 182 184 188 191 194 196 189 184 191 198 181 144 129 135 159 169 169 180 189 183 178 181 186 180 174 175 166 159 152 147 146 148 152 146 145 147 144 142 139 136 133 132 131 126 121 121 120 118 117 112 109 107 104 101 97 92 83 75 70 65 56 49 46 47 50 48 47 47 48 51 51 53 57 63 65 64 63 61 57 58 60 61 64 66
179 185 186 190 191 196 197 188 191 195 201 196 147 129 137 160 161 164 180 185 177 177 182 183 179 176 172 162 157 152 148 148 144 141 140 144 146 142 140 138 135 132 130 128 123 121 120 118 118 117 115 116 115 110 108 103 93 83 76 70 64 53 45 42 44 48 49 50 50 50 52 52 53 57 61 63 63 62 61 60 60 63 63 63 63
183 184 182 185 187 195 196 197 203 204 210 207 157 137 144 159 151 159 172 175 173 175 178 177 178 176 168 159 158 156 152 149 145 143 144 146 146 141 139 138 133 129 128 126 122 121 119 118 119 119 120 121 119 115 113 109 95 80 71 64 57 44 40 40 42 46 49 52 53 55 54 55 58 61 63 62 63 63 62 62 62 63 62 60 57
184 180 178 181 188 197 197 206 212 218 221 214 167 139 143 152 147 156 164 170 172 171 174 176 178 175 165 158 157 157 154 153 150 148 148 147 145 141 139 134 129 128 128 126 123 123 120 119 120 120 119 114 112 109 109 108 93 75 64 58 48 38 40 41 42 45 48 52 55 59 61 62 63 66 66 64 65 65 65 65 62 59 58 58 55
186 181 180 182 190 197 202 210 214 221 207 195 175 143 142 143 143 153 159 167 168 166 171 173 176 172 162 157 154 156 156 154 151 149 149 146 143 140 134 127 128 130 129 127 125 124 122 120 117 113 109 103 100 97 96 92 82 72 63 55 45 39 41 43 45 46 49 53 57 64 67 69 69 68 67 67 68 68 68 65 61 59 59 60 59
186 186 185 187 190 192 202 206 206 200 179 170 160 141 135 134 142 150 151 159 163 163 167 168 168 165 159 157 156 158 158 154 150 151 151 147 143 140 132 127 129 130 129 127 124 123 121 119 113 107 104 99 93 86 81 77 69 59 51 45 42 43 41 42 46 50 53 56 61 68 72 74 72 71 70 70 70 70 69 66 63 61 60 61 60
188 192 189 189 189 190 197 195 189 171 158 157 150 141 133 130 140 145 144 150 156 158 159 161 161 159 157 158 160 161 159 156 154 155 152 147 144 138 132 130 131 131 129 126 125 124 123 121 116 112 108 101 93 80 68 53 37 25 18 18 27 37 41 43 49 55 60 62 65 71 74 75 75 75 74 73 73 72 71 68 65 62 63 63 61
193 193 189 189 188 189 188 179 168 156 152 154 148 142 136 132 138 141 140 140 144 151 153 155 154 155 156 158 161 161 160 159 157 155 151 147 143 138 135 134 134 133 131 129 130 129 126 126 124 120 114 106 96 81 56 7 343 342 344 356 14 29 39 45 53 60 65 67 68 71 74 75 76 77 75 76 76 76 74 72 70 68 70 68 64
194 190 188 190 190 188 181 169 161 156 151 147 141 135 132 131 135 138 138 135 138 146 149 150 150 153 156 157 159 158 158 158 156 153 149 145 142 141 139 136 136 135 134 135 135 131 131 131 127 122 113 103 86 59 338 315 308 314 328 354 19 36 47 54 59 64 69 71 70 71 74 75 76 75 74 77 79 80 78 77 77 75 73 70 68
198 190 191 194 191 186 174 166 162 157 147 138 132 128 127 129 134 135 136 135 138 143 145 146 147 150 152 152 154 155 157 156 152 148 145 144 143 142 140 137 136 136 139 140 139 136 135 132 123 116 105 92 65 357 302 292 294 317 350 17 40 55 65 68 67 70 73 73 72 70 72 73 74 72 72 77 82 85 83 84 83 79 76 71 68
202 193 196 198 193 184 170 165 163 156 144 135 129 126 122 126 133 134 133 134 137 139 141 142 144 147 147 149 152 153 154 152 148 145 144 143 142 141 139 137 136 138 143 144 144 142 141 134 126 120 106 88 31 326 285 268 287 7 35 45 55 63 72 77 77 77 77 75 73 70 70 71 72 71 72 79 83 88 89 89 86 81 77 73 69
201 199 199 198 192 183 170 160 160 156 147 139 131 128 123 123 130 133 134 136 135 136 137 138 140 144 144 147 150 150 150 148 146 145 144 143 141 140 140 139 137 139 145 147 148 150 152 152 153 142 119 34 351 327 298 285 302 20 50 59 62 66 72 77 81 81 79 76 73 69 68 69 71 72 76 83 86 90 91 90 87 83 81 77 73
202 203 197 195 191 182 171 162 162 157 150 143 138 134 128 126 128 132 136 138 136 134 134 133 135 137 140 144 146 146 147 146 146 144 142 141 140 140 141 139 139 141 146 150 152 158 164 168 177 177 294 335 346 335 328 332 353 43 70 74 71 73 72 71 75 79 79 76 73 69 68 69 72 75 82 91 94 95 94 92 90 88 86 82 78
203 203 196 195 189 181 174 168 162 156 152 147 142 139 134 129 128 132 136 137 137 136 135 134 134 136 139 142 143 144 145 145 144 143 142 141 139 139 140 140 142 147 151 154 156 163 172 177 188 204 278 325 340 336 343 7 36 71 85 85 80 77 72 68 68 73 76 75 73 70 68 70 73 79 88 96 100 101 99 97 95 93 89 85 81
200 200 199 196 189 183 177 171 160 155 152 147 143 142 137 133 132 133 135 137 138 138 138 138 138 139 141 141 142 143 144 145 144 144 144 142 140 140 141 144 148 153 156 159 164 171 178 186 204 228 281 325 336 332 341 2 45 83 90 88 84 79 73 69 66 68 71 69 71 71 71 73 77 84 94 101 104 103 100 97 94 92 90 88 85
197 199 199 197 193 185 180 172 161 157 151 146 145 142 139 137 136 136 137 137 137 138 139 139 139 139 140 142 144 145 145 146 146 147 147 146 146 147 147 149 151 156 163 169 178 185 190 203 221 241 293 318 324 325 331 357 61 84 87 84 81 79 75 71 67 66 65 65 69 71 73 76 83 91 99 104 104 101 97 94 92 90 90 90 89
200 202 199 197 197 191 184 174 165 162 153 145 144 143 142 142 140 139 140 139 138 138 138 137 138 139 140 143 146 148 149 149 149 149 149 150 151 150 150 152 155 158 165 175 187 192 194 206 216 239 284 307 329 330 327 9 78 84 83 83 83 80 77 73 68 64 63 65 66 64 67 76 86 94 101 103 101 98 95 93 93 92 94 93 90
197 201 201 198 200 196 186 178 173 167 157 147 146 147 147 148 145 144 144 143 141 139 139 139 139 140 142 145 148 150 151 151 152 152 153 156 155 154 154 156 159 156 158 170 179 180 184 195 206 237 271 319 346 328 309 23 101 101 84 86 87 79 77 74 67 62 61 65 62 55 57 68 83 93 98 100 99 98 95 93 91 91 95 95 90
194 199 204 203 201 196 189 184 179 170 163 155 150 150 154 155 153 150 149 148 146 144 144 144 143 144 146 147 149 149 151 152 155 158 161 162 162 162 161 160 160 156 156 165 166 170 180 190 209 239 275 348 351 318 292 260 144 128 96 86 83 78 82 79 63 56 56 57 56 53 51 56 74 90 95 98 98 96 92 90 85 80 84 89 85
193 197 204 207 203 198 192 187 183 175 169 162 155 154 157 160 160 158 157 153 150 150 152 151 150 150 150 150 150 150 153 156 159 163 166 168 170 168 162 161 163 159 158 165 167 175 189 200 217 239 295 348 345 326 301 251 186 149 105 78 78 89 98 83 57 51 48 46 41 39 39 38 50 78 96 101 99 93 91 90 79 61 57 69 74
193 195 200 204 202 201 195 187 185 178 173 169 162 159 160 164 166 165 164 161 158 160 160 159 156 156 156 155 155 157 158 161 164 167 169 169 169 165 161 162 165 163 163 172 181 192 203 211 222 238 305 332 339 335 306 252 206 187 121 45 53 87 109 79 56 45 27 26 13 360 5 13 20 43 76 97 100 93 95 98 68 35 27 32 42
192 194 197 200 201 202 197 188 185 180 177 175 171 167 166 167 169 170 170 168 165 165 164 162 160 162 164 164 163 165 166 167 168 169 169 168 164 161 162 164 161 161 170 182 194 204 212 219 226 238 281 309 326 323 298 265 225 222 270 323 354 13 136 173 180 231 346 353 344 337 335 329 337 357 11 53 87 89 84 74 36 21 22 21 16
194 195 197 197 199 202 199 190 185 183 182 180 177 175 173 172 174 174 172 171 168 166 165 162 160 167 174 174 172 174 175 174 174 173 170 167 165 165 167 164 158 159 172 186 197 208 215 221 226 238 265 296 312 306 302 275 229 231 286 312 326 322 204 175 198 250 329 338 331 324 322 316 308 321 319 296 103 97 85 68 54 38 29 21 14
197 198 198 196 197 201 200 194 190 187 184 184 182 180 178 177 178 176 173 173 171 168 167 165 162 170 180 184 183 185 185 182 180 177 172 168 169 171 172 168 167 171 180 189 196 204 211 216 221 233 263 299 307 299 324 317 218 233 310 347 352 347 64 110 34 341 338 333 323 314 309 301 287 288 277 245 193 120 87 63 51 35 17 7 2
202 198 197 196 198 199 198 197 196 193 188 187 187 183 182 181 180 180 178 175 174 173 172 172 171 172 181 190 193 195 195 191 185 179 174 174 176 176 176 180 190 196 199 198 195 194 199 207 217 230 258 295 300 286 314 327 230 251 302 350 4 5 12 10 348 338 334 331 319 308 299 283 270 279 267 241 225 237 305 352 1 354 348 343 339
205 199 196 198 199 196 196 197 198 197 193 191 190 186 186 186 181 179 178 176 176 177 178 180 179 177 182 189 194 198 201 198 188 182 182 185 188 189 200 217 209 206 208 203 195 190 192 203 218 231 252 285 286 270 291 301 303 301 314 346 353 350 352 344 329 322 321 325 320 308 290 264 261 271 260 250 271 283 292 319 335 337 337 337 331
207 203 200 200 198 193 194 197 199 200 198 196 194 191 189 186 178 175 177 176 176 180 182 181 180 179 183 188 191 196 202 201 193 189 191 198 203 209 225 221 203 198 203 203 198 193 196 207 219 229 244 273 276 268 290 306 319 323 322 342 348 343 345 341 334 326 313 319 322 313 290 254 249 257 257 262 278 286 300 314 322 324 326 332 330
212 209 205 203 198 193 193 196 200 201 201 200 197 195 191 184 179 177 178 178 179 182 182 180 180 181 184 188 191 196 200 201 200 199 202 209 217 220 223 215 203 198 201 204 202 198 200 208 215 223 236 256 261 272 306 325 346 355 332 349 10 2 353 352 351 347 321 325 329 320 298 260 252 259 266 271 277 291 306 311 310 308 310 321 324
215 213 210 207 201 196 195 196 199 202 203 202 199 198 193 186 185 184 183 184 184 184 183 183 184 187 190 192 195 199 201 202 205 206 209 214 220 220 215 213 209 205 202 204 205 205 208 211 216 223 230 239 241 248 310 315 337 360 314 6 38 21 9 13 14 8 350 346 343 332 311 268 270 276 274 272 273 281 293 301 298 295 303 318 321
216 215 213 211 205 200 199 198 198 201 203 203 202 201 196 192 191 190 190 193 193 189 187 189 191 194 198 199 202 205 206 208 209 211 212 215 218 218 215 213 211 209 206 207 209 212 217 219 224 230 227 227 232 236 260 282 282 278 272 294 360 10 7 23 40 38 18 7 3 356 353 331 296 282 271 271 272 272 282 300 304 303 309 316 315
216 217 217 214 210 204 201 199 197 200 203 205 205 204 202 199 198 197 197 199 200 198 195 196 197 198 201 204 209 212 213 215 216 217 217 216 217 219 219 214 210 212 212 210 212 216 224 224 226 233 227 222 228 234 241 253 259 266 266 266 282 299 317 357 35 43 34 25 19 16 13 11 355 329 299 289 286 277 286 307 314 313 313 311 307
216 219 219 216 212 207 204 200 197 199 202 205 207 208 206 205 205 205 203 202 201 201 202 202 201 201 202 204 211 217 218 220 221 222 221 219 217 219 220 214 208 211 215 214 213 219 230 229 227 233 231 226 230 234 239 243 247 256 259 260 273 281 280 289 316 345 10 23 17 13 12 7 355 352 338 321 314 294 291 305 312 313 310 305 306
216 217 217 216 214 210 207 203 200 201 203 206 209 210 209 209 210 211 210 208 205 204 205 204 205 206 205 205 212 219 222 223 224 225 224 220 217 216 218 216 209 208 213 215 216 224 236 235 232 237 236 233 235 236 237 239 244 253 259 267 276 281 279 281 287 294 306 327 335 333 337 331 322 323 320 320 314 294 294 310 315 310 305 304 309